{"data":{"norad_id":56775,"intl_designator":"2023-078J","name":"STARLINK-6292","alt_names":[],"object_type":"PAYLOAD","status":"ACTIVE","operator":null,"country":"US","launch_date":"2023-05-31","launch_site_code":"AFWTR","launch_vehicle":null,"mission":null,"orbit_class":"UNKNOWN","rcs_meters":null,"size_class":null,"mass_kg":null,"dimensions":null,"purposes":["comms"],"wikipedia_slug":null,"has_3d_model":false,"image_url":null,"decayed_at":null,"tle_current":{"epoch":"2026-09-20T12:01:19.041312Z","epoch_age_seconds":114854,"freshness":"FRESH","line1":"1 56775U 23078J   26263.50091483  .00000327  00000+0  35191-4 0  9993","line2":"2 56775  70.0005 173.4124 0003242 269.6137  90.4651 14.98326939182843","mean_motion":14.98326939,"eccentricity":0.0003242,"inclination_deg":70.0005,"raan_deg":173.4124,"arg_perigee_deg":269.6137,"mean_anomaly_deg":90.4651,"bstar":3.5191e-5,"rev_number":18284,"period_min":96.107195467037,"perigee_km":569.81210124644,"apogee_km":574.31861245462,"semimajor_km":6950.2023568505,"source":"CELESTRAK","updated_at":"2026-09-21T09:00:33.486546Z"}}}